Time,TemperatureF,DewpointF,PressureIn,WindDirection,WindDirectionDegrees,WindSpeedMPH,WindSpeedGustMPH,Humidity,HourlyPrecipIn,Conditions,Clouds,dailyrainin,SolarRadiationWatts/m^2,SoftwareType,DateUTC
2013-03-05 00:00:00,35.1,25.6,29.74,NW,309,11.0,20.0,68,0.00,,---,0.00,0.00,VWS V14.01,2013-03-05 05:00:00,
2013-03-05 00:05:00,35.0,25.9,29.75,WNW,289,12.0,23.0,69,0.00,,---,0.00,0.00,VWS V14.01,2013-03-05 05:05:00,
2013-03-05 00:10:00,35.0,25.5,29.75,WNW,290,12.0,23.0,68,0.00,,---,0.00,0.00,VWS V14.01,2013-03-05 05:10:00,
2013-03-05 00:15:00,35.0,26.2,29.75,WNW,285,18.0,23.0,70,0.00,,---,0.00,0.00,VWS V14.01,2013-03-05 05:15:00,
2013-03-05 00:20:00,35.0,25.9,29.75,WNW,287,14.0,18.0,69,0.00,,---,0.00,0.00,VWS V14.01,2013-03-05 05:20:00,
2013-03-05 00:25:00,35.0,26.2,29.75,WNW,294,15.0,18.0,70,0.00,,---,0.00,0.00,VWS V14.01,2013-03-05 05:25:00,
2013-03-05 00:30:00,35.0,26.6,29.75,WNW,287,14.0,18.0,71,0.00,,---,0.00,0.00,VWS V14.01,2013-03-05 05:30:00,
2013-03-05 00:35:00,34.9,26.5,29.76,NW,306,8.0,14.0,71,0.00,,---,0.00,0.00,VWS V14.01,2013-03-05 05:35:00,
2013-03-05 00:40:00,34.8,26.0,29.76,NW,304,11.0,19.0,70,0.00,,---,0.00,0.00,VWS V14.01,2013-03-05 05:40:00,
2013-03-05 00:45:00,34.8,26.0,29.76,North,350,11.0,19.0,70,0.00,,---,0.00,0.00,VWS V14.01,2013-03-05 05:45:00,
2013-03-05 00:50:00,34.7,25.6,29.76,WNW,291,7.0,16.0,69,0.00,,---,0.00,0.00,VWS V14.01,2013-03-05 05:50:00,
2013-03-05 00:55:00,34.8,26.0,29.76,NW,304,8.0,20.0,70,0.00,,---,0.00,0.00,VWS V14.01,2013-03-05 05:55:00,
2013-03-05 01:00:00,34.7,25.9,29.76,West,275,12.0,20.0,70,0.00,,---,0.00,0.00,VWS V14.01,2013-03-05 06:00:00,
2013-03-05 01:05:00,34.6,25.8,29.77,NW,313,10.0,17.0,70,0.00,,---,0.00,0.00,VWS V14.01,2013-03-05 06:05:00,
2013-03-05 01:10:00,34.4,25.3,29.77,WNW,293,13.0,19.0,69,0.00,,---,0.00,0.00,VWS V14.01,2013-03-05 06:10:00,
2013-03-05 01:15:00,34.4,26.0,29.77,WNW,291,16.0,19.0,71,0.00,,---,0.00,0.00,VWS V14.01,2013-03-05 06:15:00,
2013-03-05 01:20:00,34.3,25.9,29.77,NW,307,15.0,18.0,71,0.00,,---,0.00,0.00,VWS V14.01,2013-03-05 06:20:00,
2013-03-05 01:26:00,34.3,25.5,29.77,West,275,13.0,20.0,70,0.00,,---,0.00,0.00,VWS V14.01,2013-03-05 06:26:00,
2013-03-05 01:30:00,34.3,26.2,29.77,West,271,10.0,21.0,72,0.00,,,0.00,0.00,VWS V14.01,2013-03-05 06:30:00,
2013-03-05 01:31:00,34.3,25.9,29.77,WNW,286,8.0,21.0,71,0.00,,---,0.00,0.00,VWS V14.01,2013-03-05 06:31:00,
2013-03-05 01:36:00,34.3,25.9,29.77,WNW,283,21.0,23.0,71,0.00,,---,0.00,0.00,VWS V14.01,2013-03-05 06:36:00,
2013-03-05 01:41:00,34.2,25.8,29.77,West,268,14.0,23.0,71,0.00,,---,0.00,0.00,VWS V14.01,2013-03-05 06:41:00,
2013-03-05 01:45:00,34.1,25.4,29.78,NW,309,15.0,24.0,70,0.00,,,0.00,0.00,VWS V14.01,2013-03-05 06:45:00,
2013-03-05 01:46:00,34.1,25.0,29.78,NW,317,19.0,24.0,69,0.00,,---,0.00,0.00,VWS V14.01,2013-03-05 06:46:00,
2013-03-05 01:51:00,34.1,25.7,29.77,West,267,13.0,19.0,71,0.00,,---,0.00,0.00,VWS V14.01,2013-03-05 06:51:00,
2013-03-05 01:56:00,34.1,25.4,29.77,West,281,17.0,21.0,70,0.00,,---,0.00,0.00,VWS V14.01,2013-03-05 06:56:00,
2013-03-05 02:00:00,34.0,25.3,29.78,West,269,16.0,23.0,70,0.00,,,0.00,0.00,VWS V14.01,2013-03-05 07:00:00,
2013-03-05 02:01:00,34.0,25.3,29.78,West,277,15.0,23.0,70,0.00,,---,0.00,0.00,VWS V14.01,2013-03-05 07:01:00,
2013-03-05 02:06:00,34.0,25.0,29.77,WNW,303,17.0,-999.0,70,-99.99,,,0.00,0,weatherlink.com 1.10,2013-03-05 07:06:00,
2013-03-05 02:11:00,34.0,25.3,29.77,WNW,288,11.0,23.0,70,0.00,,---,0.00,0.00,VWS V14.01,2013-03-05 07:11:00,
2013-03-05 02:15:00,34.0,25.6,29.77,NNW,332,9.0,23.0,71,0.00,,,0.00,0.00,VWS V14.01,2013-03-05 07:15:00,
2013-03-05 02:16:00,34.0,25.6,29.77,NW,306,14.0,23.0,71,0.00,,---,0.00,0.00,VWS V14.01,2013-03-05 07:16:00,
2013-03-05 02:21:00,34.0,25.6,29.78,WNW,292,20.0,20.0,71,0.00,,---,0.00,0.00,VWS V14.01,2013-03-05 07:21:00,
2013-03-05 02:26:00,34.0,25.3,29.78,WNW,286,20.0,20.0,70,0.00,,---,0.00,0.00,VWS V14.01,2013-03-05 07:26:00,
2013-03-05 02:30:00,34.0,25.3,29.78,West,278,18.0,20.0,70,0.00,,,0.00,0.00,VWS V14.01,2013-03-05 07:30:00,
2013-03-05 02:31:00,34.0,25.3,29.78,NW,317,10.0,20.0,70,0.00,,---,0.00,0.00,VWS V14.01,2013-03-05 07:31:00,
2013-03-05 02:36:00,34.0,25.6,29.78,WNW,285,15.0,20.0,71,0.00,,---,0.00,0.00,VWS V14.01,2013-03-05 07:36:00,
2013-03-05 02:41:00,34.0,25.6,29.78,WNW,288,14.0,20.0,71,0.00,,---,0.00,0.00,VWS V14.01,2013-03-05 07:41:00,
2013-03-05 02:45:00,34.0,25.9,29.78,WNW,290,10.0,20.0,72,0.00,,,0.00,0.00,VWS V14.01,2013-03-05 07:45:00,
2013-03-05 02:46:00,34.1,26.0,29.78,West,280,11.0,20.0,72,0.00,,---,0.00,0.00,VWS V14.01,2013-03-05 07:46:00,
2013-03-05 02:51:00,34.0,25.3,29.78,WNW,294,13.0,19.0,70,0.00,,---,0.00,0.00,VWS V14.01,2013-03-05 07:51:00,
2013-03-05 02:56:00,34.0,24.9,29.78,WNW,293,14.0,19.0,69,0.00,,---,0.00,0.00,VWS V14.01,2013-03-05 07:56:00,
2013-03-05 03:01:00,34.0,25.3,29.78,WNW,284,12.0,21.0,70,0.00,,---,0.00,0.00,VWS V14.01,2013-03-05 08:01:00,
2013-03-05 03:06:00,33.9,25.5,29.79,WNW,292,9.0,19.0,71,0.00,,---,0.00,0.00,VWS V14.01,2013-03-05 08:06:00,
2013-03-05 03:11:00,33.9,25.8,29.79,NW,309,11.0,20.0,72,0.00,,---,0.00,0.00,VWS V14.01,2013-03-05 08:11:00,
2013-03-05 03:15:00,33.9,25.2,29.79,NW,313,12.0,20.0,70,0.00,,,0.00,0.00,VWS V14.01,2013-03-05 08:15:00,
2013-03-05 03:16:00,33.9,25.2,29.79,West,272,15.0,20.0,70,0.00,,---,0.00,0.00,VWS V14.01,2013-03-05 08:16:00,
2013-03-05 03:21:00,33.9,25.5,29.79,NNW,327,10.0,17.0,71,0.00,,---,0.00,0.00,VWS V14.01,2013-03-05 08:21:00,
2013-03-05 03:26:00,33.9,25.2,29.79,WNW,285,10.0,18.0,70,0.00,,---,0.00,0.00,VWS V14.01,2013-03-05 08:26:00,
2013-03-05 03:30:00,33.8,25.1,29.80,NW,306,12.0,18.0,70,0.00,,,0.00,0.00,VWS V14.01,2013-03-05 08:30:00,
2013-03-05 03:31:00,33.8,25.1,29.79,WNW,300,12.0,18.0,70,0.00,,---,0.00,0.00,VWS V14.01,2013-03-05 08:31:00,
2013-03-05 03:36:00,33.7,25.0,29.80,West,277,10.0,23.0,70,0.00,,---,0.00,0.00,VWS V14.01,2013-03-05 08:36:00,
2013-03-05 03:41:00,33.7,25.3,29.80,West,271,12.0,23.0,71,0.00,,---,0.00,0.00,VWS V14.01,2013-03-05 08:41:00,
2013-03-05 03:45:00,33.7,25.0,29.80,WNW,289,10.0,23.0,70,0.00,,,0.00,0.00,VWS V14.01,2013-03-05 08:45:00,
2013-03-05 03:46:00,33.7,25.0,29.80,WNW,289,10.0,23.0,70,0.00,,---,0.00,0.00,VWS V14.01,2013-03-05 08:46:00,
2013-03-05 03:51:00,33.6,25.2,29.81,WNW,284,17.0,18.0,71,0.00,,---,0.00,0.00,VWS V14.01,2013-03-05 08:51:00,
2013-03-05 03:56:00,33.5,25.1,29.81,WNW,285,10.0,19.0,71,0.00,,---,0.00,0.00,VWS V14.01,2013-03-05 08:56:00,
2013-03-05 04:00:00,33.6,24.9,29.81,NW,324,9.0,19.0,70,0.00,,,0.00,0.00,VWS V14.01,2013-03-05 09:00:00,
2013-03-05 04:01:00,33.6,24.9,29.81,NW,324,9.0,19.0,70,0.00,,---,0.00,0.00,VWS V14.01,2013-03-05 09:01:00,
2013-03-05 04:06:00,33.5,25.1,29.81,WNW,302,11.0,18.0,71,0.00,,---,0.00,0.00,VWS V14.01,2013-03-05 09:06:00,
2013-03-05 04:11:00,33.5,24.8,29.81,NW,313,12.0,19.0,70,0.00,,---,0.00,0.00,VWS V14.01,2013-03-05 09:11:00,
2013-03-05 04:15:00,33.5,25.1,29.81,NW,316,10.0,19.0,71,0.00,,,0.00,0.00,VWS V14.01,2013-03-05 09:15:00,
2013-03-05 04:16:00,33.5,25.1,29.81,NW,316,10.0,19.0,71,0.00,,---,0.00,0.00,VWS V14.01,2013-03-05 09:16:00,
2013-03-05 04:21:00,33.5,25.1,29.81,WNW,303,9.0,15.0,71,0.00,,---,0.00,0.00,VWS V14.01,2013-03-05 09:21:00,
2013-03-05 04:26:00,33.3,24.6,29.82,West,280,12.0,16.0,70,0.00,,---,0.00,0.00,VWS V14.01,2013-03-05 09:26:00,
2013-03-05 04:30:00,33.3,24.9,29.82,NNW,343,11.0,16.0,71,0.00,,,0.00,0.00,VWS V14.01,2013-03-05 09:30:00,
2013-03-05 04:31:00,33.3,24.9,29.82,NNW,343,11.0,16.0,71,0.00,,---,0.00,0.00,VWS V14.01,2013-03-05 09:31:00,
2013-03-05 04:36:00,33.2,25.2,29.82,WNW,300,7.0,15.0,72,0.00,,---,0.00,0.00,VWS V14.01,2013-03-05 09:36:00,
2013-03-05 04:41:00,33.2,25.2,29.83,WNW,292,8.0,15.0,72,0.00,,---,0.00,0.00,VWS V14.01,2013-03-05 09:41:00,
2013-03-05 04:45:00,33.0,25.0,29.83,WNW,286,9.0,15.0,72,0.00,,,0.00,0.00,VWS V14.01,2013-03-05 09:45:00,
2013-03-05 04:46:00,33.0,25.0,29.83,WNW,286,9.0,15.0,72,0.00,,---,0.00,0.00,VWS V14.01,2013-03-05 09:46:00,
2013-03-05 04:51:00,33.0,25.0,29.83,NW,321,7.0,14.0,72,0.00,,---,0.00,0.00,VWS V14.01,2013-03-05 09:51:00,
2013-03-05 04:56:00,33.0,25.0,29.83,WNW,297,7.0,14.0,72,0.00,,---,0.00,0.00,VWS V14.01,2013-03-05 09:56:00,
2013-03-05 05:00:00,32.9,24.9,29.84,NW,312,8.0,14.0,72,0.00,,,0.00,0.00,VWS V14.01,2013-03-05 10:00:00,
2013-03-05 05:01:00,32.9,24.9,29.84,NNW,328,7.0,14.0,72,0.00,,---,0.00,0.00,VWS V14.01,2013-03-05 10:01:00,
2013-03-05 05:06:00,32.9,24.9,29.84,WNW,300,11.0,12.0,72,0.00,,---,0.00,0.00,VWS V14.01,2013-03-05 10:06:00,
2013-03-05 05:11:00,32.9,25.2,29.84,WNW,300,9.0,13.0,73,0.00,,---,0.00,0.00,VWS V14.01,2013-03-05 10:11:00,
2013-03-05 05:15:00,32.9,24.9,29.84,WNW,288,7.0,13.0,72,0.00,,,0.00,0.00,VWS V14.01,2013-03-05 10:15:00,
2013-03-05 05:16:00,32.9,24.9,29.84,WNW,288,7.0,13.0,72,0.00,,---,0.00,0.00,VWS V14.01,2013-03-05 10:16:00,
2013-03-05 05:21:00,32.8,24.8,29.84,WNW,302,7.0,15.0,72,0.00,,---,0.00,0.00,VWS V14.01,2013-03-05 10:21:00,
2013-03-05 05:26:00,32.8,25.1,29.85,WNW,301,9.0,15.0,73,0.00,,---,0.00,0.00,VWS V14.01,2013-03-05 10:26:00,
2013-03-05 05:31:00,32.8,24.8,29.85,NNW,329,10.0,15.0,72,0.00,,---,0.00,0.00,VWS V14.01,2013-03-05 10:31:00,
2013-03-05 05:36:00,32.7,24.7,29.85,WNW,294,7.0,13.0,72,0.00,,---,0.00,0.00,VWS V14.01,2013-03-05 10:36:00,
2013-03-05 05:41:00,32.6,24.6,29.85,WNW,292,5.0,14.0,72,0.00,,---,0.00,0.00,VWS V14.01,2013-03-05 10:41:00,
2013-03-05 05:45:00,32.6,24.6,29.86,WNW,290,6.0,14.0,72,0.00,,,0.00,0.00,VWS V14.01,2013-03-05 10:45:00,
2013-03-05 05:46:00,32.5,24.5,29.86,NW,304,10.0,14.0,72,0.00,,---,0.00,0.00,VWS V14.01,2013-03-05 10:46:00,
2013-03-05 05:51:00,32.5,24.8,29.86,NW,309,10.0,13.0,73,0.00,,---,0.00,0.00,VWS V14.01,2013-03-05 10:51:00,
2013-03-05 05:56:00,32.5,24.8,29.86,NW,306,13.0,13.0,73,0.00,,---,0.00,0.00,VWS V14.01,2013-03-05 10:56:00,
2013-03-05 06:00:00,32.5,24.5,29.86,WNW,294,10.0,14.0,72,0.00,,,0.00,0.00,VWS V14.01,2013-03-05 11:00:00,
2013-03-05 06:01:00,32.5,24.5,29.86,WNW,300,8.0,14.0,72,0.00,,---,0.00,0.00,VWS V14.01,2013-03-05 11:01:00,
2013-03-05 06:06:00,32.5,24.5,29.87,WNW,300,5.0,15.0,72,0.00,,---,0.00,0.00,VWS V14.01,2013-03-05 11:06:00,
2013-03-05 06:11:00,32.5,24.8,29.87,WNW,289,6.0,15.0,73,0.00,,---,0.00,0.00,VWS V14.01,2013-03-05 11:11:00,
2013-03-05 06:16:00,32.6,24.6,29.87,WNW,294,8.0,15.0,72,0.00,,---,0.00,5.00,VWS V14.01,2013-03-05 11:16:00,
2013-03-05 06:21:00,32.6,24.9,29.87,NW,312,10.0,11.0,73,0.00,,---,0.00,11.00,VWS V14.01,2013-03-05 11:21:00,
2013-03-05 06:26:00,32.7,25.0,29.88,West,278,9.0,11.0,73,0.00,,---,0.00,19.00,VWS V14.01,2013-03-05 11:26:00,
2013-03-05 06:30:00,32.8,25.1,29.88,WNW,297,7.0,12.0,73,0.00,,,0.00,25.00,VWS V14.01,2013-03-05 11:30:00,
2013-03-05 06:31:00,32.7,25.0,29.88,NW,304,6.0,7.0,73,0.00,,---,0.00,25.00,VWS V14.01,2013-03-05 11:31:00,
2013-03-05 06:36:00,32.8,25.1,29.88,NW,319,7.0,12.0,73,0.00,,---,0.00,25.00,VWS V14.01,2013-03-05 11:36:00,
2013-03-05 06:41:00,32.8,24.8,29.88,WNW,299,10.0,13.0,72,0.00,,---,0.00,28.00,VWS V14.01,2013-03-05 11:41:00,
2013-03-05 06:45:00,32.9,24.9,29.89,WNW,286,6.0,13.0,72,0.00,,,0.00,30.00,VWS V14.01,2013-03-05 11:45:00,
2013-03-05 06:46:00,32.9,24.9,29.89,WNW,286,6.0,6.0,72,0.00,,---,0.00,30.00,VWS V14.01,2013-03-05 11:46:00,
2013-03-05 06:51:00,33.0,25.3,29.89,WNW,302,5.0,13.0,73,0.00,,---,0.00,37.00,VWS V14.01,2013-03-05 11:51:00,
2013-03-05 06:56:00,33.0,25.6,29.89,WNW,286,5.0,13.0,74,0.00,,---,0.00,39.00,VWS V14.01,2013-03-05 11:56:00,
2013-03-05 07:00:00,33.0,25.6,29.89,WNW,299,9.0,13.0,74,0.00,,,0.00,47.00,VWS V14.01,2013-03-05 12:00:00,
2013-03-05 07:01:00,33.0,25.6,29.90,WNW,303,8.0,9.0,74,0.00,,---,0.00,47.00,VWS V14.01,2013-03-05 12:01:00,
2013-03-05 07:06:00,33.0,25.3,29.90,WNW,302,8.0,12.0,73,0.00,,---,0.00,49.00,VWS V14.01,2013-03-05 12:06:00,
2013-03-05 07:11:00,32.9,25.5,29.90,WNW,288,7.0,12.0,74,0.00,,---,0.00,56.00,VWS V14.01,2013-03-05 12:11:00,
2013-03-05 07:15:00,33.0,25.3,29.90,WNW,286,5.0,12.0,73,0.00,,,0.00,65.00,VWS V14.01,2013-03-05 12:15:00,
2013-03-05 07:16:00,33.0,25.3,29.90,NW,313,8.0,8.0,73,0.00,,---,0.00,65.00,VWS V14.01,2013-03-05 12:16:00,
2013-03-05 07:21:00,33.2,25.8,29.90,West,279,6.0,12.0,74,0.00,,---,0.00,70.00,VWS V14.01,2013-03-05 12:21:00,
2013-03-05 07:26:00,33.3,25.6,29.91,WNW,289,5.0,12.0,73,0.00,,---,0.00,81.00,VWS V14.01,2013-03-05 12:26:00,
2013-03-05 07:30:00,33.4,25.4,29.91,NW,321,6.0,12.0,72,0.00,,,0.00,93.00,VWS V14.01,2013-03-05 12:30:00,
2013-03-05 07:31:00,33.4,25.4,29.91,NW,321,6.0,12.0,72,0.00,,---,0.00,93.00,VWS V14.01,2013-03-05 12:31:00,
2013-03-05 07:36:00,33.5,25.5,29.91,NW,305,7.0,11.0,72,0.00,,---,0.00,104.00,VWS V14.01,2013-03-05 12:36:00,
2013-03-05 07:41:00,33.7,25.3,29.91,WNW,298,7.0,11.0,71,0.00,,---,0.00,107.00,VWS V14.01,2013-03-05 12:41:00,
2013-03-05 07:45:00,33.9,25.5,29.91,NW,312,11.0,12.0,71,0.00,,,0.00,113.00,VWS V14.01,2013-03-05 12:45:00,
2013-03-05 07:46:00,33.9,25.5,29.91,NW,315,8.0,11.0,71,0.00,,---,0.00,113.00,VWS V14.01,2013-03-05 12:46:00,
2013-03-05 07:51:00,34.1,25.4,29.91,NW,313,9.0,14.0,70,0.00,,---,0.00,120.00,VWS V14.01,2013-03-05 12:51:00,
2013-03-05 07:56:00,34.3,25.5,29.91,NW,304,7.0,14.0,70,0.00,,---,0.00,137.00,VWS V14.01,2013-03-05 12:56:00,
2013-03-05 08:00:00,34.5,25.7,29.91,NW,308,11.0,14.0,70,0.00,,,0.00,167.00,VWS V14.01,2013-03-05 13:00:00,
2013-03-05 08:01:00,34.5,25.4,29.91,NW,309,7.0,11.0,69,0.00,,---,0.00,167.00,VWS V14.01,2013-03-05 13:01:00,
2013-03-05 08:06:00,34.7,25.6,29.91,NW,317,3.0,15.0,69,0.00,,---,0.00,186.00,VWS V14.01,2013-03-05 13:06:00,
2013-03-05 08:11:00,35.0,25.9,29.92,WNW,296,6.0,15.0,69,0.00,,---,0.00,185.00,VWS V14.01,2013-03-05 13:11:00,
2013-03-05 08:15:00,35.1,26.0,29.92,NW,322,4.0,15.0,69,0.00,,,0.00,214.00,VWS V14.01,2013-03-05 13:15:00,
2013-03-05 08:16:00,35.1,26.0,29.92,NW,315,8.0,14.0,69,0.00,,---,0.00,220.00,VWS V14.01,2013-03-05 13:16:00,
2013-03-05 08:21:00,35.5,26.4,29.92,NW,308,8.0,14.0,69,0.00,,---,0.00,269.00,VWS V14.01,2013-03-05 13:21:00,
2013-03-05 08:26:00,35.9,26.4,29.92,NW,304,11.0,14.0,68,0.00,,---,0.00,406.00,VWS V14.01,2013-03-05 13:26:00,
2013-03-05 08:30:00,36.3,26.4,29.92,West,281,10.0,14.0,67,0.00,,,0.00,420.00,VWS V14.01,2013-03-05 13:30:00,
2013-03-05 08:31:00,36.3,26.4,29.92,NW,306,6.0,11.0,67,0.00,,---,0.00,420.00,VWS V14.01,2013-03-05 13:31:00,
2013-03-05 08:36:00,36.6,26.3,29.92,NW,319,8.0,14.0,66,0.00,,---,0.00,577.00,VWS V14.01,2013-03-05 13:36:00,
2013-03-05 08:41:00,36.7,26.4,29.92,NNW,331,10.0,16.0,66,0.00,,---,0.00,255.00,VWS V14.01,2013-03-05 13:41:00,
2013-03-05 08:45:00,36.8,26.5,29.92,NW,321,13.0,16.0,66,0.00,,,0.00,323.00,VWS V14.01,2013-03-05 13:45:00,
2013-03-05 08:46:00,36.8,26.5,29.92,WNW,302,9.0,15.0,66,0.00,,---,0.00,415.00,VWS V14.01,2013-03-05 13:46:00,
2013-03-05 08:51:00,36.9,26.6,29.92,NNW,342,12.0,15.0,66,0.00,,---,0.00,260.00,VWS V14.01,2013-03-05 13:51:00,
2013-03-05 08:57:00,36.9,26.6,29.92,NNW,330,11.0,15.0,66,0.00,,---,0.00,295.00,VWS V14.01,2013-03-05 13:57:00,
2013-03-05 09:00:00,37.0,26.7,29.92,NW,313,8.0,17.0,66,0.00,,,0.00,392.00,VWS V14.01,2013-03-05 14:00:00,
2013-03-05 09:01:00,37.0,26.7,29.92,NW,314,7.0,8.0,66,0.00,,---,0.00,392.00,VWS V14.01,2013-03-05 14:01:00,
2013-03-05 09:07:00,37.5,27.2,29.92,WNW,300,7.0,13.0,66,0.00,,---,0.00,531.00,VWS V14.01,2013-03-05 14:07:00,
2013-03-05 09:12:00,38.0,27.3,29.92,WNW,303,7.0,16.0,65,0.00,,---,0.00,682.00,VWS V14.01,2013-03-05 14:12:00,
2013-03-05 09:15:00,38.5,27.8,29.92,North,349,8.0,16.0,65,0.00,,,0.00,323.00,VWS V14.01,2013-03-05 14:15:00,
2013-03-05 09:17:00,38.6,27.5,29.92,North,5,7.0,14.0,64,0.00,,---,0.00,323.00,VWS V14.01,2013-03-05 14:17:00,
2013-03-05 09:22:00,38.6,27.5,29.92,NW,314,12.0,14.0,64,0.00,,---,0.00,403.00,VWS V14.01,2013-03-05 14:22:00,
2013-03-05 09:27:00,38.9,27.8,29.92,WNW,303,8.0,14.0,64,0.00,,---,0.00,691.00,VWS V14.01,2013-03-05 14:27:00,
2013-03-05 09:30:00,39.2,27.7,29.92,NNW,327,6.0,17.0,63,0.00,,,0.00,659.00,VWS V14.01,2013-03-05 14:30:00,
2013-03-05 09:32:00,39.3,27.8,29.92,NNW,332,8.0,11.0,63,0.00,,---,0.00,659.00,VWS V14.01,2013-03-05 14:32:00,
2013-03-05 09:37:00,39.2,27.7,29.92,NNW,336,6.0,13.0,63,0.00,,---,0.00,626.00,VWS V14.01,2013-03-05 14:37:00,
2013-03-05 09:42:00,39.7,28.1,29.93,NW,309,9.0,13.0,63,0.00,,---,0.00,649.00,VWS V14.01,2013-03-05 14:42:00,
2013-03-05 09:45:00,39.8,27.5,29.93,NNW,338,11.0,14.0,61,0.00,,,0.00,652.00,VWS V14.01,2013-03-05 14:45:00,
2013-03-05 09:47:00,39.7,27.4,29.93,NNW,338,9.0,11.0,61,0.00,,---,0.00,557.00,VWS V14.01,2013-03-05 14:47:00,
2013-03-05 09:52:00,39.7,27.8,29.93,NNW,331,10.0,13.0,62,0.00,,---,0.00,257.00,VWS V14.01,2013-03-05 14:52:00,
2013-03-05 09:57:00,40.0,28.4,29.93,North,351,10.0,14.0,63,0.00,,---,0.00,605.00,VWS V14.01,2013-03-05 14:57:00,
2013-03-05 10:00:00,40.4,28.4,29.93,NW,311,5.0,14.0,62,0.00,,,0.00,462.00,VWS V14.01,2013-03-05 15:00:00,
2013-03-05 10:02:00,40.5,28.5,29.93,NW,304,9.0,9.0,62,0.00,,---,0.00,462.00,VWS V14.01,2013-03-05 15:02:00,
2013-03-05 10:07:00,40.3,27.9,29.93,NNW,329,7.0,15.0,61,0.00,,---,0.00,745.00,VWS V14.01,2013-03-05 15:07:00,
2013-03-05 10:12:00,40.4,28.4,29.93,NW,326,4.0,15.0,62,0.00,,---,0.00,789.00,VWS V14.01,2013-03-05 15:12:00,
2013-03-05 10:15:00,41.0,29.0,29.93,NNW,328,5.0,15.0,62,0.00,,,0.00,844.00,VWS V14.01,2013-03-05 15:15:00,
2013-03-05 10:17:00,41.1,29.1,29.93,NNW,335,7.0,8.0,62,0.00,,---,0.00,844.00,VWS V14.01,2013-03-05 15:17:00,
2013-03-05 10:22:00,41.3,28.5,29.93,NNW,347,16.0,16.0,60,0.00,,---,0.00,791.00,VWS V14.01,2013-03-05 15:22:00,
2013-03-05 10:27:00,41.5,29.1,29.93,NNW,332,5.0,16.0,61,0.00,,---,0.00,849.00,VWS V14.01,2013-03-05 15:27:00,
2013-03-05 10:30:00,41.6,28.8,29.93,NW,323,11.0,16.0,60,0.00,,,0.00,835.00,VWS V14.01,2013-03-05 15:30:00,
2013-03-05 10:32:00,41.5,28.7,29.93,NW,321,9.0,11.0,60,0.00,,---,0.00,831.00,VWS V14.01,2013-03-05 15:32:00,
2013-03-05 10:37:00,41.3,28.5,29.93,NW,315,6.0,16.0,60,0.00,,---,0.00,445.00,VWS V14.01,2013-03-05 15:37:00,
2013-03-05 10:42:00,41.5,29.1,29.93,NW,321,11.0,16.0,61,0.00,,---,0.00,364.00,VWS V14.01,2013-03-05 15:42:00,
2013-03-05 10:45:00,41.4,29.0,29.93,NNE,12,4.0,16.0,61,0.00,,,0.00,392.00,VWS V14.01,2013-03-05 15:45:00,
2013-03-05 10:47:00,41.4,29.4,29.93,NE,44,11.0,11.0,62,0.00,,---,0.00,374.00,VWS V14.01,2013-03-05 15:47:00,
2013-03-05 10:52:00,41.0,30.5,29.93,NNW,335,10.0,13.0,66,0.00,,---,0.00,369.00,VWS V14.01,2013-03-05 15:52:00,
2013-03-05 10:57:00,41.1,29.5,29.93,NW,326,9.0,13.0,63,0.00,,---,0.00,306.00,VWS V14.01,2013-03-05 15:57:00,
2013-03-05 11:02:00,41.4,29.8,29.94,NW,319,7.0,7.0,63,0.00,,---,0.00,374.00,VWS V14.01,2013-03-05 16:02:00,
2013-03-05 11:07:00,41.5,29.5,29.93,NW,323,7.0,12.0,62,0.00,,---,0.00,431.00,VWS V14.01,2013-03-05 16:07:00,
2013-03-05 11:12:00,41.3,29.7,29.94,WNW,298,9.0,14.0,63,0.00,,---,0.00,504.00,VWS V14.01,2013-03-05 16:12:00,
2013-03-05 11:15:00,41.6,30.3,29.94,North,11,5.0,16.0,64,0.00,,,0.00,527.00,VWS V14.01,2013-03-05 16:15:00,
2013-03-05 11:17:00,41.7,30.4,29.94,North,360,6.0,7.0,64,0.00,,---,0.00,510.00,VWS V14.01,2013-03-05 16:17:00,
2013-03-05 11:22:00,41.7,29.3,29.94,NW,311,5.0,12.0,61,0.00,,---,0.00,420.00,VWS V14.01,2013-03-05 16:22:00,
2013-03-05 11:27:00,41.8,29.8,29.94,North,350,10.0,12.0,62,0.00,,---,0.00,459.00,VWS V14.01,2013-03-05 16:27:00,
2013-03-05 11:30:00,41.8,29.8,29.94,NW,311,10.0,12.0,62,0.00,,,0.00,422.00,VWS V14.01,2013-03-05 16:30:00,
2013-03-05 11:32:00,41.9,30.2,29.94,NNW,338,7.0,10.0,63,0.00,,---,0.00,432.00,VWS V14.01,2013-03-05 16:32:00,
2013-03-05 11:37:00,41.7,30.0,29.94,NNW,329,7.0,13.0,63,0.00,,---,0.00,490.00,VWS V14.01,2013-03-05 16:37:00,
2013-03-05 11:42:00,41.8,30.1,29.94,NNE,14,8.0,13.0,63,0.00,,---,0.00,397.00,VWS V14.01,2013-03-05 16:42:00,
2013-03-05 11:45:00,41.8,30.5,29.94,North,355,5.0,13.0,64,0.00,,,0.00,392.00,VWS V14.01,2013-03-05 16:45:00,
2013-03-05 11:47:00,41.9,30.6,29.94,North,355,4.0,8.0,64,0.00,,---,0.00,480.00,VWS V14.01,2013-03-05 16:47:00,
2013-03-05 11:52:00,42.2,30.9,29.94,North,5,10.0,12.0,64,0.00,,---,0.00,462.00,VWS V14.01,2013-03-05 16:52:00,
2013-03-05 11:57:00,42.4,30.7,29.94,NNE,21,8.0,12.0,63,0.00,,---,0.00,536.00,VWS V14.01,2013-03-05 16:57:00,
2013-03-05 12:00:00,42.5,30.8,29.94,NW,321,6.0,12.0,63,0.00,,,0.00,847.00,VWS V14.01,2013-03-05 17:00:00,
2013-03-05 12:02:00,42.6,30.9,29.94,NNE,12,9.0,12.0,63,0.00,,---,0.00,847.00,VWS V14.01,2013-03-05 17:02:00,
2013-03-05 12:07:00,42.6,31.3,29.94,WNW,303,3.0,13.0,64,0.00,,---,0.00,517.00,VWS V14.01,2013-03-05 17:07:00,
2013-03-05 12:12:00,42.9,31.2,29.94,NNE,14,9.0,13.0,63,0.00,,---,0.00,499.00,VWS V14.01,2013-03-05 17:12:00,
2013-03-05 12:15:00,42.9,30.8,29.94,North,360,8.0,14.0,62,0.00,,,0.00,482.00,VWS V14.01,2013-03-05 17:15:00,
2013-03-05 12:17:00,42.8,30.7,29.94,North,360,9.0,11.0,62,0.00,,---,0.00,427.00,VWS V14.01,2013-03-05 17:17:00,
2013-03-05 12:22:00,42.6,30.5,29.94,NNE,13,10.0,11.0,62,0.00,,---,0.00,561.00,VWS V14.01,2013-03-05 17:22:00,
2013-03-05 12:27:00,42.6,30.9,29.94,North,349,11.0,15.0,63,0.00,,---,0.00,552.00,VWS V14.01,2013-03-05 17:27:00,
2013-03-05 12:30:00,42.9,30.8,29.94,North,355,7.0,15.0,62,0.00,,,0.00,348.00,VWS V14.01,2013-03-05 17:30:00,
2013-03-05 12:32:00,42.9,30.8,29.94,NW,318,6.0,7.0,62,0.00,,---,0.00,348.00,VWS V14.01,2013-03-05 17:32:00,
2013-03-05 12:37:00,43.6,31.5,29.93,NW,322,7.0,14.0,62,0.00,,---,0.00,893.00,VWS V14.01,2013-03-05 17:37:00,
2013-03-05 12:42:00,44.2,31.2,29.93,North,355,9.0,17.0,60,0.00,,---,0.00,932.00,VWS V14.01,2013-03-05 17:42:00,
2013-03-05 12:45:00,43.9,31.3,29.93,NNW,341,10.0,17.0,61,0.00,,,0.00,935.00,VWS V14.01,2013-03-05 17:45:00,
2013-03-05 12:47:00,44.0,31.4,29.93,North,9,10.0,11.0,61,0.00,,---,0.00,935.00,VWS V14.01,2013-03-05 17:47:00,
2013-03-05 12:52:00,43.7,31.5,29.93,North,9,12.0,14.0,62,0.00,,---,0.00,751.00,VWS V14.01,2013-03-05 17:52:00,
2013-03-05 12:57:00,43.6,31.5,29.93,NNE,33,10.0,17.0,62,0.00,,---,0.00,492.00,VWS V14.01,2013-03-05 17:57:00,
2013-03-05 13:00:00,43.6,31.9,29.93,North,355,10.0,17.0,63,0.00,,,0.00,404.00,VWS V14.01,2013-03-05 18:00:00,
2013-03-05 13:02:00,43.7,32.0,29.93,NNW,342,11.0,17.0,63,0.00,,---,0.00,381.00,VWS V14.01,2013-03-05 18:02:00,
2013-03-05 13:07:00,43.4,31.7,29.94,North,5,12.0,17.0,63,0.00,,---,0.00,485.00,VWS V14.01,2013-03-05 18:07:00,
2013-03-05 13:12:00,43.2,31.9,29.94,NNW,334,10.0,17.0,64,0.00,,---,0.00,429.00,VWS V14.01,2013-03-05 18:12:00,
2013-03-05 13:15:00,43.3,32.0,29.94,NW,321,10.0,17.0,64,0.00,,,0.00,415.00,VWS V14.01,2013-03-05 18:15:00,
2013-03-05 13:17:00,43.3,32.0,29.94,NW,325,7.0,10.0,64,0.00,,---,0.00,390.00,VWS V14.01,2013-03-05 18:17:00,
2013-03-05 13:22:00,43.0,31.7,29.94,NNW,346,13.0,15.0,64,0.00,,---,0.00,431.00,VWS V14.01,2013-03-05 18:22:00,
2013-03-05 13:27:00,42.6,31.7,29.95,NW,323,6.0,17.0,65,0.00,,---,0.00,362.00,VWS V14.01,2013-03-05 18:27:00,
2013-03-05 13:30:00,42.6,32.0,29.95,North,11,7.0,17.0,66,0.00,,,0.00,355.00,VWS V14.01,2013-03-05 18:30:00,
2013-03-05 13:32:00,42.7,32.5,29.95,NNE,19,8.0,13.0,67,0.00,,---,0.00,353.00,VWS V14.01,2013-03-05 18:32:00,
2013-03-05 13:37:00,42.3,32.1,29.95,NNE,22,7.0,18.0,67,0.00,,---,0.00,330.00,VWS V14.01,2013-03-05 18:37:00,
2013-03-05 13:42:00,42.1,32.7,29.95,NNE,19,12.0,18.0,69,0.00,,---,0.00,380.00,VWS V14.01,2013-03-05 18:42:00,
2013-03-05 13:45:00,41.9,32.5,29.95,North,355,13.0,18.0,69,0.00,,,0.00,378.00,VWS V14.01,2013-03-05 18:45:00,
2013-03-05 13:47:00,41.9,32.5,29.95,North,360,5.0,13.0,69,0.00,,---,0.00,283.00,VWS V14.01,2013-03-05 18:47:00,
2013-03-05 13:52:00,41.9,32.5,29.95,North,355,7.0,13.0,69,0.00,,---,0.00,241.00,VWS V14.01,2013-03-05 18:52:00,
2013-03-05 13:57:00,41.9,32.8,29.95,NNW,342,12.0,14.0,70,0.00,,---,0.00,304.00,VWS V14.01,2013-03-05 18:57:00,
2013-03-05 14:00:00,42.2,32.8,29.95,NNW,344,11.0,14.0,69,0.00,,,0.00,747.00,VWS V14.01,2013-03-05 19:00:00,
2013-03-05 14:02:00,42.3,32.9,29.95,NE,49,8.0,11.0,69,0.00,,---,0.00,656.00,VWS V14.01,2013-03-05 19:02:00,
2013-03-05 14:07:00,42.5,33.1,29.95,NNE,21,9.0,17.0,69,0.00,,---,0.00,294.00,VWS V14.01,2013-03-05 19:07:00,
2013-03-05 14:12:00,42.5,32.7,29.96,North,355,9.0,17.0,68,0.00,,---,0.00,315.00,VWS V14.01,2013-03-05 19:12:00,
2013-03-05 14:15:00,42.4,32.6,29.96,North,11,11.0,17.0,68,0.00,,,0.00,244.00,VWS V14.01,2013-03-05 19:15:00,
2013-03-05 14:17:00,42.3,32.1,29.96,North,9,9.0,14.0,67,0.00,,---,0.00,209.00,VWS V14.01,2013-03-05 19:17:00,
2013-03-05 14:22:00,42.0,32.2,29.96,North,355,9.0,14.0,68,0.00,,---,0.00,239.00,VWS V14.01,2013-03-05 19:22:00,
2013-03-05 14:27:00,42.0,32.2,29.96,NNW,338,9.0,14.0,68,0.00,,---,0.00,165.00,VWS V14.01,2013-03-05 19:27:00,
2013-03-05 14:30:00,41.9,31.8,29.96,NNE,24,8.0,15.0,67,0.00,,,0.00,111.00,VWS V14.01,2013-03-05 19:30:00,
2013-03-05 14:32:00,41.9,31.8,29.96,NNW,331,8.0,13.0,67,0.00,,---,0.00,107.00,VWS V14.01,2013-03-05 19:32:00,
2013-03-05 14:37:00,41.8,32.0,29.97,North,349,7.0,15.0,68,0.00,,---,0.00,91.00,VWS V14.01,2013-03-05 19:37:00,
2013-03-05 14:42:00,41.8,32.4,29.97,NNE,21,8.0,15.0,69,0.00,,---,0.00,139.00,VWS V14.01,2013-03-05 19:42:00,
2013-03-05 14:45:00,41.7,32.7,29.97,NNE,12,13.0,15.0,70,0.00,,,0.00,153.00,VWS V14.01,2013-03-05 19:45:00,
2013-03-05 14:47:00,41.7,32.7,29.97,NE,46,8.0,13.0,70,0.00,,---,0.00,146.00,VWS V14.01,2013-03-05 19:47:00,
2013-03-05 14:52:00,41.6,32.9,29.98,NNE,30,6.0,13.0,71,0.00,,---,0.00,97.00,VWS V14.01,2013-03-05 19:52:00,
2013-03-05 14:57:00,41.5,32.5,29.98,NNW,327,11.0,14.0,70,0.00,,---,0.00,120.00,VWS V14.01,2013-03-05 19:57:00,
2013-03-05 15:00:00,41.6,32.9,29.98,NW,323,13.0,15.0,71,0.00,,,0.00,123.00,VWS V14.01,2013-03-05 20:00:00,
2013-03-05 15:02:00,41.6,32.9,29.98,NW,317,11.0,15.0,71,0.00,,---,0.00,91.00,VWS V14.01,2013-03-05 20:02:00,
2013-03-05 15:07:00,41.3,33.0,29.99,NNW,348,9.0,15.0,72,0.00,,---,0.00,100.00,VWS V14.01,2013-03-05 20:07:00,
2013-03-05 15:12:00,41.0,34.7,29.99,North,351,4.0,15.0,78,0.00,,---,0.00,109.00,VWS V14.01,2013-03-05 20:12:00,
2013-03-05 15:15:00,41.0,33.4,29.99,North,360,8.0,15.0,74,0.00,,,0.00,174.00,VWS V14.01,2013-03-05 20:15:00,
2013-03-05 15:18:00,41.0,33.4,29.99,NE,39,11.0,14.0,74,0.00,,---,0.00,176.00,VWS V14.01,2013-03-05 20:18:00,
2013-03-05 15:23:00,41.2,33.5,29.99,NE,40,3.0,14.0,74,0.00,,---,0.00,246.00,VWS V14.01,2013-03-05 20:23:00,
2013-03-05 15:28:00,41.4,33.4,29.99,NNW,346,7.0,14.0,73,0.00,,---,0.00,225.00,VWS V14.01,2013-03-05 20:28:00,
2013-03-05 15:30:00,41.5,33.2,29.99,NNE,15,9.0,14.0,72,0.00,,,0.00,186.00,VWS V14.01,2013-03-05 20:30:00,
2013-03-05 15:33:00,41.5,33.5,29.99,NNW,344,6.0,10.0,73,0.00,,---,0.00,176.00,VWS V14.01,2013-03-05 20:33:00,
2013-03-05 15:38:00,41.5,33.2,29.99,North,11,9.0,15.0,72,0.00,,---,0.00,193.00,VWS V14.01,2013-03-05 20:38:00,
2013-03-05 15:43:00,41.5,33.2,30.00,NNW,328,4.0,15.0,72,0.00,,---,0.00,172.00,VWS V14.01,2013-03-05 20:43:00,
2013-03-05 15:45:00,41.7,33.3,30.00,NW,324,4.0,15.0,72,0.00,,,0.00,192.00,VWS V14.01,2013-03-05 20:45:00,
2013-03-05 15:48:00,41.8,33.5,30.00,NNE,17,4.0,8.0,72,0.00,,---,0.00,176.00,VWS V14.01,2013-03-05 20:48:00,
2013-03-05 15:53:00,41.9,33.5,30.00,NNW,335,10.0,10.0,72,0.00,,---,0.00,125.00,VWS V14.01,2013-03-05 20:53:00,
2013-03-05 15:58:00,41.8,33.1,30.00,North,10,12.0,14.0,71,0.00,,---,0.00,121.00,VWS V14.01,2013-03-05 20:58:00,
2013-03-05 16:00:00,41.8,33.1,30.00,NNE,30,4.0,14.0,71,0.00,,,0.00,109.00,VWS V14.01,2013-03-05 21:00:00,
2013-03-05 16:03:00,41.8,33.1,30.00,NNW,346,11.0,13.0,71,0.00,,---,0.00,98.00,VWS V14.01,2013-03-05 21:03:00,
2013-03-05 16:08:00,41.8,32.8,30.00,NNW,335,6.0,15.0,70,0.00,,---,0.00,77.00,VWS V14.01,2013-03-05 21:08:00,
2013-03-05 16:13:00,41.7,32.7,30.00,North,355,10.0,15.0,70,0.00,,---,0.00,76.00,VWS V14.01,2013-03-05 21:13:00,
2013-03-05 16:15:00,41.7,32.7,30.00,North,360,7.0,15.0,70,0.00,,,0.00,67.00,VWS V14.01,2013-03-05 21:15:00,
2013-03-05 16:18:00,41.6,32.6,30.00,North,355,12.0,12.0,70,0.00,,---,0.00,62.00,VWS V14.01,2013-03-05 21:18:00,
2013-03-05 16:23:00,41.6,32.6,30.00,NNW,331,8.0,14.0,70,0.00,,---,0.00,70.00,VWS V14.01,2013-03-05 21:23:00,
2013-03-05 16:28:00,41.6,32.9,30.01,North,360,7.0,14.0,71,0.00,,---,0.00,54.00,VWS V14.01,2013-03-05 21:28:00,
2013-03-05 16:30:00,41.6,32.9,30.01,NNE,26,8.0,14.0,71,0.00,,,0.00,40.00,VWS V14.01,2013-03-05 21:30:00,
2013-03-05 16:33:00,41.6,33.3,30.01,North,360,3.0,8.0,72,0.00,,---,0.00,46.00,VWS V14.01,2013-03-05 21:33:00,
2013-03-05 16:38:00,41.2,33.5,30.01,NE,51,7.0,11.0,74,0.00,,---,0.00,47.00,VWS V14.01,2013-03-05 21:38:00,
2013-03-05 16:43:00,40.9,33.6,30.01,NE,53,10.0,12.0,75,0.00,,---,0.00,49.00,VWS V14.01,2013-03-05 21:43:00,
2013-03-05 16:45:00,40.7,33.4,30.01,NNE,25,5.0,13.0,75,0.00,,,0.00,44.00,VWS V14.01,2013-03-05 21:45:00,
2013-03-05 16:48:00,40.7,33.4,30.01,North,5,9.0,11.0,75,0.00,,---,0.00,39.00,VWS V14.01,2013-03-05 21:48:00,
2013-03-05 16:53:00,40.6,33.6,30.01,North,11,9.0,12.0,76,0.00,,---,0.00,40.00,VWS V14.01,2013-03-05 21:53:00,
2013-03-05 16:58:00,40.6,33.6,30.02,North,360,9.0,12.0,76,0.00,,---,0.00,25.00,VWS V14.01,2013-03-05 21:58:00,
2013-03-05 17:00:00,40.5,33.5,30.02,NE,37,9.0,12.0,76,0.00,,,0.00,25.00,VWS V14.01,2013-03-05 22:00:00,
2013-03-05 17:03:00,40.4,33.8,30.02,NNE,20,7.0,10.0,77,0.00,,---,0.00,25.00,VWS V14.01,2013-03-05 22:03:00,
2013-03-05 17:08:00,40.4,33.8,30.02,NNE,14,7.0,10.0,77,0.00,,---,0.00,23.00,VWS V14.01,2013-03-05 22:08:00,
2013-03-05 17:13:00,40.4,33.8,30.02,NNE,16,5.0,10.0,77,0.00,,---,0.00,19.00,VWS V14.01,2013-03-05 22:13:00,
2013-03-05 17:15:00,40.4,34.1,30.02,North,360,4.0,10.0,78,0.00,,,0.00,18.00,VWS V14.01,2013-03-05 22:15:00,
2013-03-05 17:18:00,40.3,34.0,30.02,NE,37,3.0,8.0,78,0.00,,---,0.00,14.00,VWS V14.01,2013-03-05 22:18:00,
2013-03-05 17:23:00,40.2,34.2,30.03,NNE,21,5.0,10.0,79,0.00,,---,0.00,11.00,VWS V14.01,2013-03-05 22:23:00,
2013-03-05 17:28:00,40.0,34.0,30.03,NNE,21,9.0,10.0,79,0.00,,---,0.00,9.00,VWS V14.01,2013-03-05 22:28:00,
2013-03-05 17:30:00,39.9,34.2,30.02,NNE,19,7.0,10.0,80,0.00,,,0.00,7.00,VWS V14.01,2013-03-05 22:30:00,
2013-03-05 17:33:00,39.8,34.1,30.03,North,355,7.0,9.0,80,0.00,,---,0.00,5.00,VWS V14.01,2013-03-05 22:33:00,
2013-03-05 17:38:00,39.7,34.0,30.03,NE,36,6.0,9.0,80,0.00,,---,0.00,5.00,VWS V14.01,2013-03-05 22:38:00,
2013-03-05 17:43:00,39.6,34.0,30.03,NNE,13,7.0,10.0,80,0.00,,---,0.00,0.00,VWS V14.01,2013-03-05 22:43:00,
2013-03-05 17:45:00,39.6,34.0,30.03,North,9,5.0,10.0,80,0.00,,,0.00,0.00,VWS V14.01,2013-03-05 22:45:00,
2013-03-05 17:48:00,39.7,34.0,30.03,NNE,25,1.0,9.0,80,0.00,,---,0.00,0.00,VWS V14.01,2013-03-05 22:48:00,
2013-03-05 17:53:00,39.7,33.7,30.03,NNE,13,4.0,9.0,79,0.00,,---,0.00,0.00,VWS V14.01,2013-03-05 22:53:00,
2013-03-05 17:58:00,39.7,33.7,30.03,North,11,8.0,9.0,79,0.00,,---,0.00,0.00,VWS V14.01,2013-03-05 22:58:00,
2013-03-05 18:00:00,39.6,33.6,30.03,NNE,28,4.0,9.0,79,0.00,,,0.00,0.00,VWS V14.01,2013-03-05 23:00:00,
2013-03-05 18:03:00,39.6,33.6,30.03,North,9,8.0,9.0,79,0.00,,---,0.00,0.00,VWS V14.01,2013-03-05 23:03:00,
2013-03-05 18:08:00,39.5,33.8,30.03,NNE,22,8.0,9.0,80,0.00,,---,0.00,0.00,VWS V14.01,2013-03-05 23:08:00,
2013-03-05 18:13:00,39.4,33.8,30.03,NE,34,3.0,10.0,80,0.00,,---,0.00,0.00,VWS V14.01,2013-03-05 23:13:00,
2013-03-05 18:15:00,39.4,33.8,30.03,NE,34,3.0,10.0,80,0.00,,,0.00,0.00,VWS V14.01,2013-03-05 23:15:00,
2013-03-05 18:18:00,39.3,34.0,30.03,NNE,28,5.0,7.0,81,0.00,,---,0.00,0.00,VWS V14.01,2013-03-05 23:18:00,
2013-03-05 18:23:00,39.1,33.8,30.03,NNE,13,6.0,8.0,81,0.00,,---,0.00,0.00,VWS V14.01,2013-03-05 23:23:00,
2013-03-05 18:28:00,38.9,33.6,30.04,NNE,24,4.0,8.0,81,0.00,,---,0.00,0.00,VWS V14.01,2013-03-05 23:28:00,
2013-03-05 18:30:00,38.9,33.6,30.04,NE,34,4.0,8.0,81,0.00,,,0.00,0.00,VWS V14.01,2013-03-05 23:30:00,
2013-03-05 18:33:00,38.8,33.5,30.04,North,5,6.0,6.0,81,0.00,,---,0.00,0.00,VWS V14.01,2013-03-05 23:33:00,
2013-03-05 18:38:00,38.7,33.7,30.04,North,355,5.0,8.0,82,0.00,,---,0.00,0.00,VWS V14.01,2013-03-05 23:38:00,
2013-03-05 18:43:00,38.6,33.6,30.04,North,5,4.0,8.0,82,0.00,,---,0.00,0.00,VWS V14.01,2013-03-05 23:43:00,
2013-03-05 18:45:00,38.5,33.8,30.04,North,355,7.0,8.0,83,0.00,,,0.00,0.00,VWS V14.01,2013-03-05 23:45:00,
2013-03-05 18:48:00,38.5,33.8,30.04,NNE,15,4.0,8.0,83,0.00,,---,0.00,0.00,VWS V14.01,2013-03-05 23:48:00,
2013-03-05 18:53:00,38.4,33.7,30.04,NNE,15,8.0,8.0,83,0.00,,---,0.00,0.00,VWS V14.01,2013-03-05 23:53:00,
2013-03-05 18:58:00,38.2,33.8,30.05,North,360,4.0,8.0,84,0.00,,---,0.00,0.00,VWS V14.01,2013-03-05 23:58:00,
2013-03-05 19:00:00,38.2,33.8,30.05,NNW,340,4.0,8.0,84,0.00,,,0.00,0.00,VWS V14.01,2013-03-06 00:00:00,
2013-03-05 19:03:00,38.1,33.7,30.05,NNW,346,3.0,6.0,84,0.00,,---,0.00,0.00,VWS V14.01,2013-03-06 00:03:00,
2013-03-05 19:08:00,38.0,33.6,30.05,North,355,3.0,6.0,84,0.00,,---,0.00,0.00,VWS V14.01,2013-03-06 00:08:00,
2013-03-05 19:13:00,37.9,33.5,30.05,North,5,6.0,7.0,84,0.00,,---,0.00,0.00,VWS V14.01,2013-03-06 00:13:00,
2013-03-05 19:15:00,37.9,33.5,30.05,North,355,4.0,7.0,84,0.00,,,0.00,0.00,VWS V14.01,2013-03-06 00:15:00,
2013-03-05 19:18:00,37.9,33.5,30.05,North,355,3.0,7.0,84,0.00,,---,0.00,0.00,VWS V14.01,2013-03-06 00:18:00,
2013-03-05 19:23:00,37.8,33.7,30.05,NNW,346,2.0,7.0,85,0.00,,---,0.00,0.00,VWS V14.01,2013-03-06 00:23:00,
2013-03-05 19:28:00,37.7,33.6,30.06,NNW,342,3.0,7.0,85,0.00,,---,0.00,0.00,VWS V14.01,2013-03-06 00:28:00,
2013-03-05 19:30:00,37.6,33.5,30.06,North,350,2.0,7.0,85,0.00,,,0.00,0.00,VWS V14.01,2013-03-06 00:30:00,
2013-03-05 19:33:00,37.5,33.4,30.06,NNW,343,4.0,4.0,85,0.00,,---,0.00,0.00,VWS V14.01,2013-03-06 00:33:00,
2013-03-05 19:38:00,37.4,33.6,30.06,NNW,338,3.0,5.0,86,0.00,,---,0.00,0.00,VWS V14.01,2013-03-06 00:38:00,
2013-03-05 19:43:00,37.2,33.4,30.06,NNW,335,3.0,5.0,86,0.00,,---,0.00,0.00,VWS V14.01,2013-03-06 00:43:00,
2013-03-05 19:45:00,37.1,33.3,30.06,NNW,337,4.0,5.0,86,0.00,,,0.00,0.00,VWS V14.01,2013-03-06 00:45:00,
2013-03-05 19:48:00,37.1,33.3,30.05,NNW,342,3.0,5.0,86,0.00,,---,0.00,0.00,VWS V14.01,2013-03-06 00:48:00,
2013-03-05 19:53:00,37.0,33.2,30.05,North,360,4.0,6.0,86,0.00,,---,0.00,0.00,VWS V14.01,2013-03-06 00:53:00,
2013-03-05 19:58:00,36.9,33.1,30.05,North,355,9.0,9.0,86,0.00,,---,0.00,0.00,VWS V14.01,2013-03-06 00:58:00,
2013-03-05 20:00:00,36.9,33.1,30.05,North,5,4.0,9.0,86,0.00,,,0.00,0.00,VWS V14.01,2013-03-06 01:00:00,
2013-03-05 20:03:00,36.8,33.0,30.05,NNW,340,4.0,5.0,86,0.00,,---,0.00,0.00,VWS V14.01,2013-03-06 01:03:00,
2013-03-05 20:08:00,36.7,33.2,30.06,North,360,5.0,6.0,87,0.00,,---,0.00,0.00,VWS V14.01,2013-03-06 01:08:00,
2013-03-05 20:13:00,36.8,33.0,30.05,NNW,327,4.0,6.0,86,0.00,,---,0.00,0.00,VWS V14.01,2013-03-06 01:13:00,
2013-03-05 20:15:00,36.8,33.0,30.06,NNW,341,3.0,6.0,86,0.00,,,0.00,0.00,VWS V14.01,2013-03-06 01:15:00,
2013-03-05 20:18:00,36.7,32.9,30.06,NNW,333,5.0,5.0,86,0.00,,---,0.00,0.00,VWS V14.01,2013-03-06 01:18:00,
2013-03-05 20:23:00,36.7,32.9,30.05,NNW,347,2.0,6.0,86,0.00,,---,0.00,0.00,VWS V14.01,2013-03-06 01:23:00,
2013-03-05 20:28:00,36.6,32.8,30.06,NW,323,4.0,6.0,86,0.00,,---,0.00,0.00,VWS V14.01,2013-03-06 01:28:00,
2013-03-05 20:30:00,36.6,32.8,30.06,NNW,333,4.0,6.0,86,0.00,,,0.00,0.00,VWS V14.01,2013-03-06 01:30:00,
2013-03-05 20:33:00,36.5,32.7,30.06,NNW,344,3.0,4.0,86,0.00,,---,0.00,0.00,VWS V14.01,2013-03-06 01:33:00,
2013-03-05 20:38:00,36.4,32.9,30.06,NNW,341,3.0,5.0,87,0.00,,---,0.00,0.00,VWS V14.01,2013-03-06 01:38:00,
2013-03-05 20:44:00,36.3,32.8,30.06,NNW,335,4.0,5.0,87,0.00,,---,0.00,0.00,VWS V14.01,2013-03-06 01:44:00,
2013-03-05 20:45:00,36.2,32.7,30.06,NNW,336,4.0,5.0,87,0.00,,,0.00,0.00,VWS V14.01,2013-03-06 01:45:00,
2013-03-05 20:49:00,36.2,32.7,30.06,NNW,328,4.0,5.0,87,0.00,,---,0.00,0.00,VWS V14.01,2013-03-06 01:49:00,
2013-03-05 20:54:00,36.1,32.6,30.06,NNW,344,4.0,7.0,87,0.00,,---,0.00,0.00,VWS V14.01,2013-03-06 01:54:00,
2013-03-05 20:59:00,36.2,32.7,30.05,North,11,4.0,8.0,87,0.00,,---,0.00,0.00,VWS V14.01,2013-03-06 01:59:00,
2013-03-05 21:00:00,36.2,33.0,30.05,NNW,338,6.0,8.0,88,0.00,,,0.00,0.00,VWS V14.01,2013-03-06 02:00:00,
2013-03-05 21:04:00,36.4,32.9,30.05,North,5,6.0,8.0,87,0.00,,---,0.00,0.00,VWS V14.01,2013-03-06 02:04:00,
2013-03-05 21:09:00,36.4,32.9,30.05,North,355,4.0,8.0,87,0.00,,---,0.00,0.00,VWS V14.01,2013-03-06 02:09:00,
2013-03-05 21:14:00,36.4,33.2,30.05,NNW,346,7.0,8.0,88,0.00,,---,0.00,0.00,VWS V14.01,2013-03-06 02:14:00,
2013-03-05 21:15:00,36.4,33.2,30.05,North,360,5.0,9.0,88,0.00,,,0.00,0.00,VWS V14.01,2013-03-06 02:15:00,
2013-03-05 21:19:00,36.4,33.2,30.05,NNW,338,5.0,7.0,88,0.00,,---,0.00,0.00,VWS V14.01,2013-03-06 02:19:00,
2013-03-05 21:24:00,36.4,33.2,30.05,North,355,5.0,8.0,88,0.00,,---,0.00,0.00,VWS V14.01,2013-03-06 02:24:00,
2013-03-05 21:29:00,36.3,33.1,30.05,North,350,4.0,8.0,88,0.00,,---,0.00,0.00,VWS V14.01,2013-03-06 02:29:00,
2013-03-05 21:30:00,36.2,33.0,30.05,NNW,348,3.0,8.0,88,0.00,,,0.00,0.00,VWS V14.01,2013-03-06 02:30:00,
2013-03-05 21:34:00,36.2,33.0,30.05,North,360,2.0,6.0,88,0.00,,---,0.00,0.00,VWS V14.01,2013-03-06 02:34:00,
2013-03-05 21:39:00,36.2,33.0,30.05,North,355,4.0,6.0,88,0.00,,---,0.00,0.00,VWS V14.01,2013-03-06 02:39:00,
2013-03-05 21:44:00,36.1,32.9,30.06,North,11,5.0,6.0,88,0.00,,---,0.00,0.00,VWS V14.01,2013-03-06 02:44:00,
2013-03-05 21:45:00,36.1,33.2,30.06,North,11,4.0,6.0,89,0.00,,,0.00,0.00,VWS V14.01,2013-03-06 02:45:00,
2013-03-05 21:49:00,36.0,33.1,30.05,NNW,340,3.0,6.0,89,0.00,,---,0.00,0.00,VWS V14.01,2013-03-06 02:49:00,
2013-03-05 21:54:00,35.8,32.9,30.05,NNW,339,3.0,6.0,89,0.00,,---,0.00,0.00,VWS V14.01,2013-03-06 02:54:00,
2013-03-05 21:59:00,35.6,32.7,30.05,NNW,346,3.0,6.0,89,0.00,,---,0.00,0.00,VWS V14.01,2013-03-06 02:59:00,
2013-03-05 22:00:00,35.6,33.0,30.05,NNW,347,1.0,6.0,90,0.00,,,0.00,0.00,VWS V14.01,2013-03-06 03:00:00,
2013-03-05 22:04:00,35.5,32.9,30.05,North,350,2.0,4.0,90,0.00,,---,0.00,0.00,VWS V14.01,2013-03-06 03:04:00,
2013-03-05 22:09:00,35.3,32.7,30.05,NNW,338,3.0,4.0,90,0.00,,---,0.00,0.00,VWS V14.01,2013-03-06 03:09:00,
2013-03-05 22:14:00,35.3,32.7,30.05,NNW,340,3.0,4.0,90,0.00,,---,0.00,0.00,VWS V14.01,2013-03-06 03:14:00,
2013-03-05 22:15:00,35.2,32.6,30.05,NNW,331,3.0,5.0,90,0.00,,,0.00,0.00,VWS V14.01,2013-03-06 03:15:00,
2013-03-05 22:19:00,35.2,32.6,30.06,NNW,338,3.0,4.0,90,0.00,,---,0.00,0.00,VWS V14.01,2013-03-06 03:19:00,
2013-03-05 22:24:00,35.2,32.8,30.06,NNW,338,3.0,4.0,91,0.00,,---,0.00,0.00,VWS V14.01,2013-03-06 03:24:00,
2013-03-05 22:29:00,35.1,32.7,30.06,NNW,329,3.0,4.0,91,0.00,,---,0.00,0.00,VWS V14.01,2013-03-06 03:29:00,
2013-03-05 22:30:00,35.1,32.7,30.06,NW,325,4.0,4.0,91,0.00,,,0.00,0.00,VWS V14.01,2013-03-06 03:30:00,
2013-03-05 22:34:00,35.1,32.7,30.06,NW,322,4.0,5.0,91,0.00,,---,0.00,0.00,VWS V14.01,2013-03-06 03:34:00,
2013-03-05 22:39:00,35.1,32.7,30.07,NW,309,5.0,5.0,91,0.00,,---,0.00,0.00,VWS V14.01,2013-03-06 03:39:00,
2013-03-05 22:44:00,35.2,32.8,30.07,WNW,302,4.0,5.0,91,0.00,,---,0.00,0.00,VWS V14.01,2013-03-06 03:44:00,
2013-03-05 22:45:00,35.1,32.7,30.07,WNW,301,3.0,5.0,91,0.00,,,0.00,0.00,VWS V14.01,2013-03-06 03:45:00,
2013-03-05 22:49:00,35.1,32.7,30.08,WNW,300,4.0,4.0,91,0.00,,---,0.00,0.00,VWS V14.01,2013-03-06 03:49:00,
2013-03-05 22:54:00,35.0,32.6,30.08,NW,305,3.0,5.0,91,0.00,,---,0.00,0.00,VWS V14.01,2013-03-06 03:54:00,
2013-03-05 22:59:00,34.8,32.5,30.07,NW,322,4.0,6.0,91,0.00,,---,0.00,0.00,VWS V14.01,2013-03-06 03:59:00,
2013-03-05 23:00:00,34.8,32.5,30.07,NNW,330,5.0,6.0,91,0.00,,,0.00,0.00,VWS V14.01,2013-03-06 04:00:00,
2013-03-05 23:04:00,34.8,32.5,30.07,NW,316,5.0,6.0,91,0.00,,---,0.00,0.00,VWS V14.01,2013-03-06 04:04:00,
2013-03-05 23:09:00,34.8,32.5,30.07,NW,323,7.0,7.0,91,0.00,,---,0.00,0.00,VWS V14.01,2013-03-06 04:09:00,
2013-03-05 23:14:00,34.8,32.5,30.07,NNW,342,6.0,7.0,91,0.00,,---,0.00,0.00,VWS V14.01,2013-03-06 04:14:00,
2013-03-05 23:15:00,34.8,32.7,30.07,NW,323,4.0,7.0,92,0.00,,,0.00,0.00,VWS V14.01,2013-03-06 04:15:00,
2013-03-05 23:19:00,34.9,32.8,30.07,NNW,340,6.0,6.0,92,0.00,,---,0.00,0.00,VWS V14.01,2013-03-06 04:19:00,
2013-03-05 23:24:00,35.0,32.9,30.06,North,355,3.0,7.0,92,0.00,,---,0.00,0.00,VWS V14.01,2013-03-06 04:24:00,
2013-03-05 23:29:00,35.1,33.0,30.06,NNW,348,4.0,7.0,92,0.00,,---,0.00,0.00,VWS V14.01,2013-03-06 04:29:00,
2013-03-05 23:30:00,35.1,33.0,30.06,North,5,5.0,7.0,92,0.00,,,0.00,0.00,VWS V14.01,2013-03-06 04:30:00,
2013-03-05 23:34:00,35.2,33.1,30.05,NNW,346,6.0,8.0,92,0.00,,---,0.00,0.00,VWS V14.01,2013-03-06 04:34:00,
2013-03-05 23:39:00,35.4,33.3,30.05,North,360,7.0,8.0,92,0.00,,---,0.00,0.00,VWS V14.01,2013-03-06 04:39:00,
2013-03-05 23:44:00,35.7,33.6,30.04,North,351,7.0,8.0,92,0.00,,---,0.00,0.00,VWS V14.01,2013-03-06 04:44:00,
2013-03-05 23:45:00,35.8,33.7,30.04,North,349,6.0,9.0,92,0.00,,,0.00,0.00,VWS V14.01,2013-03-06 04:45:00,
2013-03-05 23:49:00,35.9,33.5,30.04,North,360,3.0,9.0,91,0.00,,---,0.00,0.00,VWS V14.01,2013-03-06 04:49:00,
2013-03-05 23:54:00,35.8,33.4,30.04,NNE,13,8.0,10.0,91,0.00,,---,0.00,0.00,VWS V14.01,2013-03-06 04:54:00,
2013-03-05 23:59:00,35.5,33.1,30.03,North,360,6.0,10.0,91,0.00,,---,0.00,0.00,VWS V14.01,2013-03-06 04:59:00,